DW9425 Weather Reports


Display with metric or nautical units.
time (UTC)temp
F
wind
direction
speed
MPH
gust
MPH
rain 1hr
in
rain 24hr
in
rain mn
in
humidity
%
barometer
mb
20260831053028 71 342 1.0 3.0 0.00 0.00 0.00 42 1021.0
20260831051620 71 324 0.0 3.0 0.00 0.00 0.00 42 1020.9
20260831050026 71 324 0.0 1.0 0.00 0.00 0.00 42 1021.0
20260831044519 72 324 0.0 2.0 0.00 0.00 0.00 40 1021.0
20260831043018 72 324 1.0 4.0 0.00 0.00 0.00 40 1021.0
20260831041618 73 268 2.0 4.0 0.00 0.00 0.00 39 1021.1
20260831040017 74 267 0.0 2.0 0.00 0.00 0.00 38 1021.1
20260831034517 75 267 1.0 4.0 0.00 0.00 0.00 37 1021.1
20260831033016 75 278 4.0 10.0 0.00 0.00 0.00 36 1021.0
20260831031518 76 238 7.0 10.0 0.00 0.00 0.00 35 1020.9
20260831030015 77 342 0.0 3.0 0.00 0.00 0.00 34 1020.4
20260831024515 77 342 0.0 3.0 0.00 0.00 0.00 33 1020.1
20260831023014 78 342 1.0 4.0 0.00 0.00 0.00 33 1020.1
20260831021524 78 338 2.0 5.0 0.00 0.00 0.00 32 1019.9
20260831020016 79 336 0.0 1.0 0.00 0.00 0.00 32 1019.8
20260831014523 80 336 0.0 3.0 0.00 0.00 0.00 31 1019.7
20260831013012 81 336 2.0 4.0 0.00 0.00 0.00 30 1019.6
20260831011514 82 336 1.0 5.0 0.00 0.00 0.00 29 1019.6
20260831010011 82 340 0.0 5.0 0.00 0.00 0.00 28 1019.6
20260831004510 83 333 3.0 8.0 0.00 0.00 0.00 28 1019.7
20260831003009 83 340 3.0 5.0 0.00 0.00 0.00 28 1019.8
20260831001508 84 309 0.0 3.0 0.00 0.00 0.00 27 1019.8
20260831000009 84 312 2.0 8.0 0.00 0.00 0.00 27 1019.9
20260830234509 84 300 4.0 8.0 0.00 0.00 0.00 28 1019.8
20260830233007 84 302 4.0 8.0 0.00 0.00 0.00 27 1019.8
20260830231506 85 335 2.0 9.0 0.00 0.00 0.00 26 1019.7
20260830230005 85 239 3.0 9.0 0.00 0.00 0.00 27 1019.8
20260830224504 85 355 2.0 12.0 0.00 0.00 0.00 27 1019.9
20260830223003 87 355 5.0 15.0 0.00 0.00 0.00 27 1020.0
20260830221502 88 268 7.0 11.0 0.00 0.00 0.00 27 1020.1
20260830220001 89 254 7.0 16.0 0.00 0.00 0.00 22 1020.3
20260830214618 90 250 8.0 14.0 0.00 0.00 0.00 22 1020.2
20260830213057 89 210 7.0 14.0 0.00 0.00 0.00 24 1020.3
20260830211555 87 282 0.0 11.0 0.00 0.00 0.00 25 1020.5
20260830210105 88 235 7.0 14.0 0.00 0.00 0.00 24 1020.8
20260830204559 89 242 13.0 19.0 0.00 0.00 0.00 24 1020.9
20260830203050 89 297 6.0 12.0 0.00 0.00 0.00 24 1021.0
20260830201553 89 272 3.0 10.0 0.00 0.00 0.00 23 1021.3
20260830200048 89 270 6.0 16.0 0.00 0.00 0.00 24 1021.4
20260830194543 88 239 7.0 14.0 0.00 0.00 0.00 27 1021.6
20260830193039 87 229 4.0 11.0 0.00 0.00 0.00 29 1021.8
20260830191536 86 311 3.0 12.0 0.00 0.00 0.00 29 1021.8
20260830190044 85 307 1.0 7.0 0.00 0.00 0.00 31 1021.8
20260830184530 84 237 3.0 10.0 0.00 0.00 0.00 33 1022.0
20260830183026 83 360 8.0 13.0 0.00 0.00 0.00 32 1022.2
20260830181524 82 342 8.0 13.0 0.00 0.00 0.00 34 1022.4
20260830180024 81 244 3.0 11.0 0.00 0.00 0.00 36 1022.5
20260830174518 80 325 7.0 14.0 0.00 0.00 0.00 36 1022.9
20260830173013 80 331 4.0 10.0 0.00 0.00 0.00 37 1023.0
20260830171509 78 294 4.0 11.0 0.00 0.00 0.00 39 1023.3
20260830170006 78 317 4.0 11.0 0.00 0.00 0.00 41 1023.5
20260830164503 77 237 5.0 11.0 0.00 0.00 0.00 43 1023.6
20260830163104 77 313 6.0 11.0 0.00 0.00 0.00 43 1023.7
20260830161555 77 309 9.0 15.0 0.00 0.00 0.00 43 1023.8
20260830160052 75 236 3.0 12.0 0.00 0.00 0.00 48 1023.8
20260830154548 74 242 5.0 10.0 0.00 0.00 0.00 49 1023.7
20260830153046 73 273 6.0 9.0 0.00 0.00 0.00 49 1023.7
20260830151542 72 329 1.0 6.0 0.00 0.00 0.00 52 1023.5
20260830150038 70 351 0.0 6.0 0.00 0.00 0.00 57 1023.3
20260830144534 68 33 1.0 9.0 0.00 0.00 0.00 62 1023.4
20260830143022 66 340 4.0 10.0 0.00 0.00 0.00 66 1023.5
20260830141520 65 348 5.0 10.0 0.00 0.00 0.00 68 1023.6
20260830140023 65 335 6.0 10.0 0.00 0.00 0.00 69 1023.6
20260830134505 64 321 4.0 8.0 0.00 0.00 0.00 71 1023.3
20260830133004 63 355 3.0 6.0 0.00 0.00 0.00 73 1023.1
20260830131559 62 355 2.0 5.0 0.00 0.00 0.00 74 1023.0
20260830130054 62 355 4.0 9.0 0.00 0.00 0.00 74 1022.9
20260830124551 62 305 2.0 8.0 0.00 0.00 0.00 74 1022.8
20260830123050 62 325 3.0 5.0 0.00 0.00 0.00 75 1022.8
20260830121549 62 315 2.0 5.0 0.00 0.00 0.00 74 1022.7
20260830120054 62 315 1.0 4.0 0.00 0.00 0.00 73 1022.7
20260830114548 63 329 1.0 3.0 0.00 0.00 0.00 72 1022.5
20260830113048 63 340 3.0 5.0 0.00 0.00 0.00 72 1022.4
20260830111548 63 333 5.0 8.0 0.00 0.00 0.00 72 1022.3
20260830110046 63 320 4.0 8.0 0.00 0.00 0.00 72 1022.5
20260830104603 63 338 4.0 8.0 0.00 0.00 0.00 71 1022.5
20260830103046 64 340 5.0 9.0 0.00 0.00 0.00 69 1022.5
20260830101546 64 313 4.0 10.0 0.00 0.00 0.00 64 1022.3
20260830100045 64 51 2.0 9.0 0.00 0.00 0.00 64 1022.0
20260830094544 63 42 1.0 7.0 0.00 0.00 0.00 68 1022.1
20260830093045 62 57 4.0 11.0 0.00 0.00 0.00 71 1022.1
20260830091542 62 40 3.0 9.0 0.00 0.00 0.00 73 1022.2
20260830090039 62 355 2.0 5.0 0.00 0.00 0.00 73 1022.6
20260830084537 62 355 6.0 10.0 0.00 0.00 0.00 71 1022.8
20260830083053 62 328 5.0 12.0 0.00 0.00 0.00 72 1023.0
20260830081534 62 360 8.0 14.0 0.00 0.00 0.00 73 1022.9
20260830080031 63 330 6.0 10.0 0.00 0.00 0.00 71 1023.0
20260830074529 63 317 7.0 12.0 0.00 0.00 0.00 71 1022.9
20260830073027 64 301 7.0 15.0 0.00 0.00 0.00 69 1022.9
20260830071526 64 335 8.0 14.0 0.00 0.00 0.00 67 1022.8
20260830070023 65 342 11.0 18.0 0.00 0.00 0.00 65 1022.8
20260830064517 65 323 11.0 19.0 0.00 0.00 0.00 62 1022.9
20260830063014 66 9 13.0 23.0 0.00 0.00 0.00 60 1023.0
20260830061511 66 20 11.0 19.0 0.00 0.00 0.00 59 1022.9
20260830060014 67 5 9.0 25.0 0.00 0.00 0.00 57 1023.1
20260830054508 67 9 10.0 21.0 0.00 0.00 0.00 57 1023.0